Regional Weather Roundup
Issued by NWS

Home | Current Version | Previous Version | Text Only | Print | Product List | Glossary Off
Versions: 1 2 3 4 5 6 7 8 9 10 11 12 13 14 15 16 17 18 19 20 21 22 23 24 25 26 27 28 29 30 31 32 33 34 35 36 37 38 39 40 41 42 43 44 45 46 47 48 49 50

000
ASUS43 KMPX 311501
RWRMN
WEATHER ROUNDUP FOR MINNESOTA
NATIONAL WEATHER SERVICE TWIN CITIES/CHANHASSEN MN
1000 AM CDT MON AUG 31 2015


NOTE: "FAIR" INDICATES FEW OR NO CLOUDS BELOW 12,000 FEET WITH NO
SIGNIFICANT WEATHER AND/OR OBSTRUCTIONS TO VISIBILITY. N/A MEANS
CURRENT SKY AND/OR WEATHER CONDITIONS ARE NOT AVAILABLE.

MNZ060>063-068>070-311600-
   Twin Cities Metro

CITY           SKY/WX    TMP DP  RH WIND       PRES   REMARKS
TWIN CITIES    MOSUNNY   73  67  81 S12       29.94S
ST PAUL        PTSUNNY   71  67  87 S9G20     29.94S
CRYSTAL        MOSUNNY   75  67  76 S12G18    29.91S
BLAINE         PTSUNNY   75  70  83 S10G16    29.93S
LAKEVILLE      CLOUDY    70  68  94 S7        29.95S FOG
EDEN PRAIRIE   PTSUNNY   73  67  81 S14       29.93R
SOUTH ST PAUL  MOSUNNY   72  67  85 S12G18    29.95R
LAKE ELMO      CLOUDY    72  68  88 S12       29.96S
$$
MNZ001>005-007-008-013>017-022>024-027-028-311600-
   Northwest Minnesota

CITY           SKY/WX    TMP DP  RH WIND       PRES   REMARKS
BEMIDJI        SUNNY     72  59  63 S12       29.76S
HALLOCK        CLOUDY    70  66  88 W7        29.68R
ROSEAU         CLOUDY    70  63  78 S7        29.68F
WARROAD        CLOUDY    70  63  78 SW5       29.69F
THIEF RVR FALL CLOUDY   N/A N/A N/A SW12      29.69R
CROOKSTON      CLOUDY    70  63  78 SW13      29.70R
FOSSTON        SUNNY     73  57  56 S23       29.71F
DETROIT LAKES  SUNNY     73  59  60 S14G21    29.76F
MOORHEAD       SUNNY     72  61  68 S15       29.72S
PARK RAPIDS    SUNNY     73  60  63 S9        29.80R
MAHNOMEN       FAIR      74  60  62 S15G25    29.72F
$$
MNZ006-009>011-018-025>026-311600-
   North Central Minnesota

CITY           SKY/WX    TMP DP  RH WIND       PRES   REMARKS
BAUDETTE       MOSUNNY   71  61  70 S12       29.71R
FLAG ISLAND    CLOUDY    68  61  77 SW9       29.67F
INTL FALLS     MOSUNNY   71  62  73 SW8       29.76R
WASKISH        MOSUNNY   73  63  68 S12G17    29.73F
BIG FORK       MOSUNNY   73  63  68 S12       29.79S
LONGVILLE      SUNNY     72  63  73 S9        29.81S
GRAND RAPIDS     N/A     68  61  77 S14G21    29.83S
CRANE LAKE     SUNNY     68  61  77 S9        29.80F
ORR            MOSUNNY   70  59  68 S10G16    29.77F
COOK           SUNNY     70  61  73 S8        29.82F
WALKER         FAIR      70  59  69 S9G21     29.78R
$$
MNZ012-019>021-037-311600-
   Northeast Minnesota

CITY           SKY/WX    TMP DP  RH WIND       PRES   REMARKS
DULUTH         MOSUNNY   69  63  81 S13       29.89S
ELY            SUNNY     72  57  60 SW10      29.85S
HIBBING        SUNNY     68  62  81 S8        29.86S
EVELETH        SUNNY     66  64  94 S7        29.87S
DULUTH HARBOR  MOSUNNY   72  66  83 S10       29.88F
TWO HARBORS    MOSUNNY   72  66  83 S10       29.88S
SILVER BAY     MOSUNNY   72  63  73 S9        29.88R
GRAND MARAIS     N/A     57  56  96 W3        29.89S
G MARAIS ARPRT PTSUNNY   63  61  94 S8        29.93R FOG
$$
MNZ029>031-032-039>041-046>048-054>057-064-311600-
   West Central Minnesota

CITY           SKY/WX    TMP DP  RH WIND       PRES   REMARKS
FERGUS FALLS   SUNNY     73  61  64 S17       29.76F
WHEATON        SUNNY     72  63  73 SE8       29.78R
MORRIS         SUNNY     72  66  83 S14G20    29.79R
ALEXANDRIA     SUNNY     71  63  75 S15       29.83S
ELBOW LAKE     FAIR      71  63  76 S14G23    29.79R
WADENA         SUNNY     72  63  73 S12G17    29.81R
GLENWOOD       SUNNY     72  64  78 S16G22    29.83F
APPLETON       SUNNY     73  64  73 S12G18    29.80R
BENSON         SUNNY     72  64  78 S13G20    29.81F
ORTONVILLE     SUNNY     73  64  73 SE8       29.78R
MADISON        SUNNY     73  64  73 S12G22    29.81R
WILLMAR        FAIR      72  68  88 S7G16     29.87F FOG
$$
MNZ033>034-036-042>043-049>051-058-059-311600-
   Central Minnesota

CITY           SKY/WX    TMP DP  RH WIND       PRES   REMARKS
ST CLOUD       MOSUNNY   71  66  84 S14       29.89R
SAUK CENTRE    FAIR      70  65  85 S15G21    29.85S
PAYNESVILLE    SUNNY     70  66  88 SE10      29.88S
AITKIN         SUNNY     72  64  78 S10G20    29.84F
PINE RIVER     SUNNY     70  64  83 SE10G16   29.85S
BRAINERD       SUNNY     70  65  84 S16       29.85F
STAPLES        SUNNY     70  63  78 S14G21    29.81S
LONG PRAIRIE   FAIR      70  64  83 SE16      29.84F
LITTLE FALLS   SUNNY     70  64  83 S9        29.86S
LITCHFIELD     SUNNY     72  70  94 S8        29.90S
BUFFALO        SUNNY     72  65  80 S14       29.92R
MAPLE LAKE     SUNNY     72  68  88 S8        29.91S
$$
MNZ037-044-045-052-053-311600-
   East Central Minnesota

CITY           SKY/WX    TMP DP  RH WIND       PRES   REMARKS
PRINCETON      PTSUNNY   73  66  78 S8G16     29.90S
MORA           CLOUDY    70  64  83 S10       29.92S
CAMBRIDGE      PTSUNNY   73  63  68 S8        29.89F
RUSH CITY      CLOUDY    71  67  87 S7        29.92F
MOOSE LAKE     PTSUNNY   70  63  78 SW14      29.88S
HINCKLEY       CLOUDY    70  66  88 S9G17     29.92S
CLOQUET        MOSUNNY   70  63  78 S9        29.89S
MCGREGOR       SUNNY     68  64  88 S13       29.87S
$$
MNZ071>073-080-081-089-090-097-098-311600-
   Southwest Minnesota

CITY           SKY/WX    TMP DP  RH WIND       PRES   REMARKS
MONTEVIDEO     SUNNY     73  72  94 SW14G22   29.84F
GRANITE FALLS  SUNNY     72  68  87 S13G20    29.87S
CANBY          SUNNY     73  64  72 S12G25    29.82S
MARSHALL       SUNNY     73  63  68 SW25G32   29.88R
REDWOOD FALLS  SUNNY     72  67  84 S16       29.89R
OLIVIA         SUNNY     68  63  83 S13G20    29.88S
PIPESTONE      MOSUNNY   72  66  83 S13G20    29.91S
WINDOM         MOSUNNY   73  68  83 S15G21    29.93R
WORTHINGTON    CLOUDY    70  66  88 S16G22    29.94R
JACKSON        MOSUNNY   72  70  94 S14       29.95S FOG
TRACY          SUNNY     72  67  86 SW22      29.89S
SLAYTON        CLOUDY    69  67  95 S15G22    29.94R FOG
$$
MNZ065>067-074>077-082>085-091>093-311600-
   South Central Minnesota

CITY           SKY/WX    TMP DP  RH WIND       PRES   REMARKS
MANKATO        CLOUDY    70  66  88 S9        29.94S
NEW ULM        MOSUNNY   70  70 100 S10       29.92R FOG
ST JAMES       PTSUNNY   72  70  94 S13       29.94R
FAIRMONT       CLOUDY    70  64  83 S14       29.95S
GLENCOE        PTSUNNY   73  70  91 S10G16    29.92R
FARIBAULT      PTSUNNY   72  68  88 S9        29.96S FOG
OWATONNA       PTSUNNY   70  66  88 S12       29.97S FOG
WASECA         PTSUNNY   72  68  88 S8        29.97F FOG
ALBERT LEA     SUNNY     72  68  88 S10       29.98S
$$
MNZ078>079-086>088-094>096-311600-
   Southeast Minnesota

CITY           SKY/WX    TMP DP  RH WIND       PRES   REMARKS
ROCHESTER      PTSUNNY   70  67  90 S12       30.01S FOG
RED WING       CLOUDY    72  66  83 S8        29.97R
STANTON        CLOUDY    72  67  86 S5G16     29.95S
DODGE CENTER   CLOUDY    68  66  94 S12       29.99S
WINONA         CLOUDY    70  64  83 CALM      30.01S
AUSTIN         CLOUDY    70  68  94 S8        29.99S FOG
PRESTON        PTSUNNY   67  66  94 S9        30.03R FOG
$$
ABBREVIATIONS USED IN REMARKS
   TC - TEMPERATURES IN CELSIUS
  WCI - WIND CHILL INDEX
   HX - HEAT INDEX
  VSB - VISIBILITY
$$


USA.gov is the U.S. government's official web portal to all federal, state and local government web resources and services.